Weather in Krasninsky

Russia / Lipetsk Oblast     52°51′26″N   38°47′20″E
temp.,
°C
wind,
m/s
gust,
m/s
humid.,
%
clouds,
%
prec.,
mm/h
press.,
hPa
HPBL,
m
8 may, sat
sat800:00+8sse48668 0.0 1015124
03:00+7sse51281100 0.0 1014250
06:00+9s61580100 0.0 1013569
09:00+10sse71680100 1.1 1011696
12:00+12sse71377100 0.6 1009836
15:00+12sse91579100 1.1 10071055
18:00+11s81693100 5.9 1005983
21:00+11ssw71293100 6.5 1004675
9 may, sun
sun900:00+9sw4994100 0.1 1005469
03:00+7w7992100 0.1 1006601
06:00+4wnw71296100 0.3 1009761
09:00+5nw81186100 0.4 10131037
12:00+7nw81071100 0.1 10141408
15:00+8nw8107199 0.3 10171305
18:00+8nnw797098 0.1 10191189
21:00+5wnw37815 0.1 1022150
10 may, mon
mon1000:00+4nw410845 0.0 1023199
03:00+4nnw4128191 0.0 1025253
06:00+4n5147493 0.0 1026349
09:00+9n712594 0.0 10261278
12:00+12nne811495 0.0 10261548
15:00+13nne912499 0.0 10251569
18:00+12nne813589 0.0 10251283
21:00+9nne8165776 0.0 1026727
11 may, tue
tue1100:00+8nne8176476 0.0 1025531
03:00+8nne7166986 0.0 1025487
06:00+7nne81679100 0.0 1025472
09:00+11ne81476100 0.0 1025574
12:00+10ne6129031 0.9 1025495
15:00+15e6977100 1.1 10251224
18:00+14ene498595 0.4 1025508
21:00+10se4791100 1.8 1025280
12 may, wed
wed1200:00+9ese1297100 1.4 102495
03:00+9ssw2599100 6.3 1023249
06:00+9sse2596100 2.5 1023237
09:00+9ne229091 4.3 1023155
12:00+15ene34698 0.0 1022881
15:00+14ene3486100 0.1 1021360
18:00+12ne2496100 0.2 1020107
21:00+12e239658 0.3 101978